TimeCDT,TemperatureF,Dew PointF,Humidity,Sea Level PressureIn,VisibilityMPH,Wind Direction,Wind SpeedMPH,Gust SpeedMPH,PrecipitationIn,Events,Conditions,WindDirDegrees,DateUTC
12:13 AM,71.6,66.2,83,29.88,7.0,ESE,8.1,-,N/A,,Overcast,110,2013-09-09 05:13:00
12:32 AM,71.6,66.2,83,29.88,7.0,ESE,8.1,-,N/A,,Overcast,110,2013-09-09 05:32:00
12:52 AM,71.6,66.2,83,29.87,7.0,ESE,9.2,-,N/A,,Overcast,110,2013-09-09 05:52:00
1:12 AM,71.6,66.2,83,29.86,10.0,ESE,9.2,-,N/A,,Overcast,110,2013-09-09 06:12:00
1:32 AM,71.6,66.2,83,29.86,10.0,ESE,5.8,-,N/A,,Overcast,110,2013-09-09 06:32:00
1:53 AM,69.8,66.2,88,29.85,10.0,ESE,8.1,-,N/A,,Overcast,120,2013-09-09 06:53:00
2:12 AM,69.8,66.2,88,29.84,7.0,ESE,8.1,-,N/A,,Scattered Clouds,120,2013-09-09 07:12:00
2:32 AM,69.8,66.2,88,29.83,7.0,SE,8.1,-,N/A,,Scattered Clouds,130,2013-09-09 07:32:00
2:53 AM,69.8,66.2,88,29.82,5.0,SE,6.9,-,N/A,,Mostly Cloudy,130,2013-09-09 07:53:00
3:13 AM,69.8,66.2,88,29.82,5.0,ESE,5.8,-,N/A,,Overcast,120,2013-09-09 08:13:00
3:32 AM,69.8,66.2,88,29.81,5.0,ESE,5.8,-,N/A,,Overcast,120,2013-09-09 08:32:00
3:53 AM,69.8,66.2,88,29.80,5.0,ESE,8.1,-,N/A,Thunderstorm,Overcast,120,2013-09-09 08:53:00
4:13 AM,69.8,66.2,88,29.80,5.0,SE,9.2,-,N/A,,Overcast,140,2013-09-09 09:13:00
4:32 AM,69.8,66.2,88,29.79,4.0,SE,9.2,-,N/A,,Overcast,140,2013-09-09 09:32:00
4:53 AM,69.8,66.2,88,29.78,2.5,SE,11.5,-,N/A,Thunderstorm,Overcast,130,2013-09-09 09:53:00
5:12 AM,69.8,66.2,88,29.79,2.0,SE,6.9,-,N/A,,Overcast,140,2013-09-09 10:12:00
5:33 AM,69.8,66.2,88,29.79,1.2,SE,6.9,-,N/A,,Overcast,130,2013-09-09 10:33:00
5:52 AM,69.8,66.2,88,29.78,1.2,SE,9.2,-,N/A,,Overcast,140,2013-09-09 10:52:00
6:13 AM,69.8,66.2,88,29.78,1.0,SE,8.1,-,N/A,,Overcast,140,2013-09-09 11:13:00
6:32 AM,69.8,66.2,88,29.78,0.8,SE,6.9,-,N/A,Thunderstorm,Overcast,140,2013-09-09 11:32:00
6:53 AM,69.8,66.2,88,29.78,1.2,SSE,6.9,-,N/A,,Overcast,150,2013-09-09 11:53:00
7:12 AM,69.8,66.2,88,29.78,1.5,SSE,8.1,-,N/A,,Overcast,150,2013-09-09 12:12:00
7:33 AM,69.8,66.2,88,29.78,1.2,SSE,8.1,-,N/A,,Overcast,150,2013-09-09 12:33:00
7:52 AM,69.8,68.0,94,29.77,1.8,SSE,10.4,-,N/A,,Overcast,150,2013-09-09 12:52:00
8:13 AM,69.8,68.0,94,29.76,2.5,SSE,9.2,-,N/A,,Overcast,150,2013-09-09 13:13:00
8:32 AM,71.6,68.0,88,29.76,4.0,SSE,8.1,-,N/A,,Overcast,160,2013-09-09 13:32:00
8:52 AM,71.6,68.0,88,29.76,5.0,SSE,6.9,-,N/A,,Mostly Cloudy,150,2013-09-09 13:52:00
9:12 AM,73.4,68.0,83,29.75,7.0,SSE,9.2,-,N/A,,Clear,160,2013-09-09 14:12:00
9:32 AM,73.4,68.0,83,29.74,7.0,SSE,6.9,-,N/A,,Clear,160,2013-09-09 14:32:00
9:53 AM,75.2,68.0,78,29.74,10.0,South,8.1,-,N/A,,Clear,170,2013-09-09 14:53:00
10:12 AM,78.8,68.0,69,29.73,10.0,South,11.5,-,N/A,,Clear,170,2013-09-09 15:12:00
10:32 AM,78.8,66.2,65,29.73,10.0,South,12.7,18.4,N/A,,Clear,170,2013-09-09 15:32:00
10:52 AM,80.6,66.2,61,29.73,10.0,South,10.4,17.3,N/A,,Clear,190,2013-09-09 15:52:00
11:12 AM,82.4,66.2,58,29.73,10.0,SSW,12.7,17.3,N/A,,Clear,200,2013-09-09 16:12:00
11:33 AM,84.2,66.2,55,29.73,10.0,South,16.1,23.0,N/A,,Clear,190,2013-09-09 16:33:00
11:52 AM,84.2,64.4,51,29.72,10.0,SSW,12.7,17.3,N/A,,Clear,200,2013-09-09 16:52:00
12:12 PM,86.0,64.4,48,29.72,10.0,South,11.5,16.1,N/A,,Clear,190,2013-09-09 17:12:00
12:33 PM,87.8,64.4,46,29.71,10.0,South,12.7,17.3,N/A,,Clear,190,2013-09-09 17:33:00
12:52 PM,87.8,62.6,43,29.71,10.0,SSW,17.3,20.7,N/A,,Clear,200,2013-09-09 17:52:00
1:12 PM,89.6,62.6,40,29.70,10.0,SSW,15.0,19.6,N/A,,Clear,200,2013-09-09 18:12:00
1:33 PM,87.8,64.4,46,29.70,10.0,South,12.7,17.3,N/A,,Clear,190,2013-09-09 18:33:00
1:52 PM,89.6,64.4,43,29.70,10.0,SSW,15.0,19.6,N/A,,Clear,200,2013-09-09 18:52:00
2:12 PM,89.6,64.4,43,29.70,10.0,South,12.7,-,N/A,,Clear,190,2013-09-09 19:12:00
2:33 PM,91.4,64.4,41,29.70,10.0,SSW,15.0,-,N/A,,Clear,200,2013-09-09 19:33:00
2:52 PM,91.4,64.4,41,29.70,10.0,SW,16.1,20.7,N/A,,Clear,220,2013-09-09 19:52:00
3:12 PM,91.4,64.4,41,29.70,10.0,SSW,17.3,21.9,N/A,,Clear,210,2013-09-09 20:12:00
3:33 PM,91.4,66.2,43,29.69,10.0,SSW,15.0,-,N/A,,Clear,210,2013-09-09 20:33:00
3:52 PM,93.2,64.4,38,29.70,10.0,SW,16.1,27.6,N/A,,Clear,230,2013-09-09 20:52:00
4:12 PM,91.4,64.4,41,29.70,10.0,SW,20.7,27.6,N/A,,Clear,230,2013-09-09 21:12:00
4:33 PM,91.4,64.4,41,29.71,10.0,SW,18.4,23.0,N/A,,Clear,230,2013-09-09 21:33:00
4:52 PM,91.4,66.2,43,29.72,10.0,SW,17.3,23.0,N/A,,Clear,220,2013-09-09 21:52:00
5:12 PM,91.4,66.2,43,29.72,10.0,SW,17.3,23.0,N/A,,Clear,230,2013-09-09 22:12:00
5:33 PM,89.6,66.2,46,29.72,10.0,SW,13.8,19.6,N/A,,Clear,230,2013-09-09 22:33:00
5:52 PM,89.6,64.4,43,29.73,10.0,SW,13.8,19.6,N/A,,Clear,220,2013-09-09 22:52:00
6:12 PM,89.6,64.4,43,29.73,10.0,SW,10.4,-,N/A,,Clear,230,2013-09-09 23:12:00
6:33 PM,87.8,66.2,49,29.74,10.0,SW,10.4,-,N/A,,Clear,230,2013-09-09 23:33:00
6:52 PM,87.8,66.2,49,29.74,10.0,WSW,6.9,-,N/A,,Clear,240,2013-09-09 23:52:00
7:12 PM,84.2,66.2,55,29.75,10.0,SW,6.9,-,N/A,,Clear,230,2013-09-10 00:12:00
7:33 PM,82.4,68.0,62,29.75,10.0,SW,5.8,-,N/A,,Clear,220,2013-09-10 00:33:00
7:52 PM,82.4,68.0,62,29.76,10.0,SSW,5.8,-,N/A,,Clear,210,2013-09-10 00:52:00
8:12 PM,80.6,68.0,65,29.77,10.0,SSW,5.8,-,N/A,,Clear,210,2013-09-10 01:12:00
8:33 PM,80.6,68.0,65,29.78,10.0,West,4.6,-,N/A,,Clear,260,2013-09-10 01:33:00
8:52 PM,78.8,66.2,65,29.79,10.0,West,8.1,-,N/A,,Clear,280,2013-09-10 01:52:00
9:12 PM,77.0,68.0,74,29.81,10.0,WNW,4.6,-,N/A,,Clear,300,2013-09-10 02:12:00
9:33 PM,75.2,68.0,78,29.81,10.0,NW,4.6,-,N/A,,Clear,310,2013-09-10 02:33:00
9:52 PM,75.2,66.2,73,29.82,10.0,WNW,4.6,-,N/A,,Clear,300,2013-09-10 02:52:00
10:12 PM,73.4,66.2,78,29.82,10.0,WNW,5.8,-,N/A,,Clear,300,2013-09-10 03:12:00
10:33 PM,73.4,66.2,78,29.82,10.0,Calm,Calm,-,N/A,,Clear,0,2013-09-10 03:33:00
10:52 PM,73.4,66.2,78,29.83,10.0,Calm,Calm,-,N/A,,Clear,0,2013-09-10 03:52:00
11:12 PM,71.6,66.2,83,29.84,10.0,NNW,5.8,-,N/A,,Clear,330,2013-09-10 04:12:00
11:33 PM,71.6,66.2,83,29.85,10.0,NNW,6.9,-,N/A,Thunderstorm,Clear,330,2013-09-10 04:33:00
11:52 PM,71.6,64.4,78,29.84,10.0,NNW,4.6,-,N/A,,Clear,340,2013-09-10 04:52:00